CAPE
1702 1565 1441 978 334 4 0 0 0 0 0 0 2 3 2 0 3 0 0 3 4 19 43 45 54 97 57 66 62 64 116 149 181 96 166 144 381 172 96 62 24 99 45
1590 1363 1119 876 317 8 6 0 0 0 0 0 0 3 0 2 2 13 7 1 8 16 40 73 78 62 193 234 89 262 136 182 135 150 194 72 224 105 97 90 42 25 52
1829 1183 1431 947 680 223 14 10 0 0 1 1 0 0 14 10 6 2 1 0 30 32 46 53 112 171 236 183 192 124 147 333 141 143 67 14 20 62 55 154 74 219 84
1461 1632 1068 1062 745 434 214 114 4 0 0 0 1 10 5 6 0 0 0 9 0 0 29 58 115 85 188 163 170 208 297 160 166 40 8 5 41 101 48 50 38 130 122
1209 1517 1472 1457 1303 1044 601 122 2 4 0 0 1 0 5 2 0 0 0 0 0 0 15 37 104 151 78 56 70 143 211 96 26 5 0 18 27 20 72 60 78 122 122
1081 1269 1399 1362 1364 1142 715 197 75 15 0 0 4 0 0 0 0 0 0 0 0 1 8 74 117 86 101 20 9 0 0 0 0 0 1 32 115 42 69 100 90 103 83
392 710 929 1066 1291 1165 858 523 325 1 7 9 0 0 0 4 0 0 0 0 0 0 3 60 76 32 80 91 0 0 0 0 0 0 12 87 38 78 100 64 99 147 89
22 204 606 905 1105 1021 595 484 282 660 319 0 0 3 13 10 0 0 0 0 0 0 39 103 105 111 106 89 16 1 16 12 13 12 127 44 31 26 6 13 77 138 112
0 13 62 171 468 902 730 628 864 413 74 8 8 5 0 0 0 0 0 0 1 42 76 97 113 122 30 2 34 52 19 129 44 38 0 0 0 0 0 0 66 110 30
0 0 14 98 287 528 864 996 876 584 215 21 8 1 3 0 0 0 0 0 7 11 98 118 46 6 0 0 13 8 21 29 67 22 12 17 6 17 0 23 35 30 56
5 4 6 58 129 252 587 837 1099 495 242 38 9 7 2 0 0 0 0 12 6 28 36 86 128 2 0 0 0 0 0 0 33 6 72 96 75 31 72 95 80 22 51
0 3 37 57 62 102 273 823 938 1001 294 4 1 2 3 3 0 1 0 1 2 33 64 53 38 0 0 0 0 0 0 0 0 10 42 65 71 81 28 52 68 85 64
0 0 0 32 83 64 309 521 571 969 402 4 4 5 3 5 1 0 0 1 0 0 0 13 0 0 0 0 0 0 0 0 6 42 63 78 92 84 51 63 112 141 140
4 0 0 11 356 228 54 128 68 423 191 6 3 3 5 6 4 1 0 0 0 0 0 1 0 0 0 0 0 0 0 0 41 60 75 81 61 80 56 47 33 57 62
32 1 4 1 232 55 280 361 210 73 137 10 4 4 6 8 1 0 0 9 0 0 0 42 2 5 8 16 20 46 35 56 84 81 58 50 38 76 45 44 44 55 26
93 68 18 0 0 0 9 81 0 0 1 1 0 4 0 0 0 0 0 0 0 0 0 0 7 38 35 42 35 31 31 12 31 41 43 51 48 19 45 35 23 12 15
339 331 15 0 3 11 6 48 461 0 0 1 1 0 0 0 0 0 0 0 0 0 0 0 6 38 36 23 23 18 6 14 15 14 26 25 48 54 13 13 12 13 13
200 6 34 13 17 11 22 62 498 309 6 1 1 0 0 0 0 0 0 0 0 0 0 0 26 15 12 12 7 2 5 15 17 31 25 36 23 16 12 11 10 14 13
263 191 243 144 78 19 106 473 255 392 6 0 1 0 0 0 0 0 0 0 0 10 16 27 4 5 3 1 1 3 16 18 9 14 32 19 8 7 10 10 12 1 0
470 286 197 276 195 65 20 582 355 351 5 1 1 0 0 0 0 0 0 0 0 10 1 0 0 0 0 0 4 16 15 10 20 17 6 5 10 18 9 13 14 15 18
481 487 311 330 283 230 743 636 457 10 5 3 0 0 0 0 0 0 0 2 7 0 0 0 0 0 0 6 10 7 4 9 4 4 9 14 12 9 11 9 13 16 23
526 498 423 326 363 630 572 448 12 7 3 1 0 0 0 0 0 5 14 2 0 0 0 0 0 1 5 4 2 3 4 3 5 3 5 8 8 4 3 4 11 19 25
489 437 323 375 792 402 286 4 6 7 5 2 0 0 0 0 0 3 1 0 0 0 0 0 0 2 0 0 3 3 0 0 0 1 4 3 6 3 1 5 7 7 22
403 410 332 582 758 395 10 7 6 2 2 0 0 0 0 0 0 2 0 0 0 0 0 1 0 0 0 4 5 0 0 0 0 4 3 2 1 1 4 2 10 16 17
391 290 232 498 554 366 16 6 2 6 15 5 0 0 0 3 4 0 0 0 0 0 0 0 0 0 3 4 0 0 0 0 0 0 3 2 4 11 11 8 13 11 17
368 394 302 511 421 182 12 8 19 28 1 0 5 6 0 3 4 0 0 0 0 0 0 1 1 1 1 0 0 0 0 0 0 0 0 2 1 2 18 18 18 22 18
CIN
-6 -1 0 -22 -179 -87 0 0 0 0 0 0 0 0 0 0 0 0 0 -1 0 0 0 0 0 0 0 0 0 0 -3 -14 -6 0 -3 -2 -1 0 -1 -1 -1 0 -16
-26 -34 -43 -60 -186 0 0 0 0 0 0 0 0 0 0 0 0 -2 -1 0 -1 0 -2 -8 -12 0 -8 -2 -1 -4 -21 -1 -37 -7 -8 0 0 -1 0 0 -1 -8 0
-17 -45 -7 -42 -66 -181 -40 0 0 0 -3 -14 0 0 0 0 0 0 0 0 -2 0 -8 -1 0 -2 -2 -6 -1 0 0 0 -22 -7 0 0 0 0 0 0 -3 -2 -6
-6 -22 -30 -15 -46 -96 -142 -167 0 0 0 0 -3 -6 -14 -8 -1 0 0 -6 0 0 -23 -4 -1 -10 -2 -7 -12 -5 -2 -3 -2 0 0 0 0 -2 -1 0 0 -4 -8
-21 0 -13 -2 0 0 -11 -118 0 0 0 -3 -11 -3 -17 -14 -1 0 0 0 0 0 -14 -4 -1 -5 -45 -35 -19 -6 -5 0 0 0 0 0 -1 0 0 0 -1 -11 -1
-39 -22 -8 0 0 0 -1 -75 -114 -86 0 0 -1 0 0 0 0 0 0 0 0 -26 -13 -1 -3 -18 -29 -80 -104 0 0 0 0 0 0 0 0 -1 -1 0 0 0 0
-42 -30 -30 -15 0 0 0 -17 -26 0 -59 -263 0 0 0 -1 0 0 0 0 0 0 -11 -2 -7 -3 -15 -26 0 0 0 0 0 0 -6 0 0 0 0 0 0 0 0
-90 -56 -27 -4 0 -3 -9 -13 -37 -6 -17 0 0 -2 -1 -1 0 0 0 0 0 0 -1 0 -8 -13 -11 -6 -32 -9 -21 -3 -15 -12 -2 0 0 -2 -2 0 0 0 0
0 -112 -84 -47 -16 -3 -4 -6 0 -10 -93 0 -1 -1 -12 0 0 0 0 0 -18 0 -4 -6 -5 -1 -13 -9 -26 -4 0 0 -58 -48 -1 -4 0 0 -1 -1 0 0 0
0 0 -105 -62 -22 -8 0 -1 -2 -5 -35 -171 0 -1 -4 0 0 0 0 -1 -2 -3 0 -1 -8 -42 0 0 -43 -17 0 0 -1 -54 -52 -30 -2 -30 -1 -12 0 -5 0
-27 -84 -86 -68 -47 -13 0 0 -1 -11 -35 -138 0 0 0 0 0 0 0 0 0 0 -3 -6 -8 -24 0 0 0 0 0 0 -3 -1 -1 -3 0 -7 -1 -12 0 -1 -2
0 -33 -33 -45 -46 -33 -11 0 -1 0 -24 0 0 0 0 0 0 0 0 0 -2 0 0 -25 -10 0 0 0 0 0 0 0 0 0 0 -2 0 0 0 0 0 -3 0
0 0 -4 -33 -23 -50 -6 0 0 0 -4 0 0 0 0 0 0 0 0 0 0 0 0 -1 0 0 0 0 0 0 0 0 0 0 0 0 0 0 -1 0 0 -2 -8
-36 0 0 -22 -2 0 -53 -8 -22 -1 -25 0 0 0 0 0 0 0 0 0 0 0 0 -5 0 0 0 0 0 0 0 0 0 0 0 0 0 -4 0 0 0 -2 0
-6 -2 -3 -11 -17 -9 -16 -9 -19 -38 -6 0 0 0 0 0 0 0 0 -1 0 0 0 0 0 -1 -3 -3 -3 0 -10 -13 -1 -3 0 0 -3 0 0 0 0 0 0
0 0 -1 0 0 0 0 -83 0 0 0 0 -1 0 0 0 0 0 0 0 0 0 0 0 0 0 0 0 0 0 0 -1 0 0 0 -1 0 0 0 0 0 0 0
-3 -1 0 0 0 0 0 0 -3 0 0 0 0 0 0 0 0 0 0 0 0 0 0 0 0 0 0 -1 0 0 0 0 -5 0 0 0 0 0 -1 0 0 0 0
0 -2 0 0 0 0 0 0 -1 -2 0 0 0 0 0 0 0 0 0 0 0 0 0 0 0 0 0 0 0 0 0 0 -1 0 0 0 0 0 0 0 0 0 0
0 0 0 0 -1 -3 -5 -3 -1 -1 0 0 0 0 0 0 0 0 0 0 0 -5 -5 -1 0 0 0 0 0 0 -1 0 -1 -1 0 0 0 0 0 0 0 -1 0
0 -4 -7 0 0 0 -20 0 0 -6 0 0 0 0 0 0 0 0 0 0 0 0 0 0 0 0 0 0 0 0 0 -1 0 0 0 0 0 0 0 0 0 0 0
0 0 -3 0 0 -2 -1 -6 -24 -45 0 0 0 0 0 0 0 0 0 -1 0 0 0 0 0 0 0 0 0 0 0 0 0 0 0 0 0 0 0 0 0 0 0
0 0 0 0 -55 0 -3 -28 -45 0 0 0 0 0 0 0 0 -1 0 -1 0 0 0 0 0 0 0 0 0 0 0 0 0 0 0 0 0 0 0 0 0 0 0
0 0 0 0 -6 -54 -52 0 0 0 0 0 0 0 0 0 0 0 -1 0 0 0 0 0 0 0 0 0 0 0 0 0 0 0 0 0 0 0 0 0 0 0 0
0 0 0 -5 -3 -3 -24 0 0 0 0 0 0 0 0 0 0 -1 0 0 0 0 0 0 0 0 0 0 0 0 0 0 0 0 0 0 0 0 0 0 0 0 -1
0 0 0 0 -13 0 -16 0 0 -14 -6 -2 -1 0 0 -1 0 0 0 0 0 0 0 0 0 0 0 0 0 0 0 0 0 0 0 0 0 0 0 0 0 0 0
0 -25 -17 0 0 -1 -24 0 -7 -1 -1 0 -1 0 0 -2 0 0 0 0 0 0 0 0 0 0 0 0 0 0 0 0 0 0 0 -2 -5 -1 0 0 0 0 0
Wind_Speed
5 5 5 5 6 6 7 8 6 4 4 4 10 11 10 10 9 8 7 4 7 4 6 9 7 8 8 9 8 7 5 4 4 9 8 9 10 7 6 5 9 10 2
5 5 5 7 7 9 10 10 8 7 6 7 8 10 10 12 11 7 7 8 6 9 9 6 6 7 5 7 7 6 3 7 4 10 6 10 7 5 6 6 4 7 8
5 4 4 6 8 9 9 11 11 11 8 6 8 12 15 13 11 11 5 6 11 6 5 5 7 6 6 6 7 8 9 7 7 6 10 9 8 8 5 6 3 2 4
2 7 5 4 7 8 9 10 11 9 8 9 11 11 8 8 9 7 9 6 5 2 6 8 8 6 8 6 6 5 6 6 9 9 10 8 9 8 8 9 7 6 5
4 3 5 6 7 8 7 8 9 9 8 6 8 8 7 8 9 12 8 7 5 2 8 7 7 11 3 2 4 7 9 9 9 10 9 9 10 10 9 8 8 5 9
5 5 2 6 4 5 6 8 8 8 9 12 12 10 9 9 11 14 10 7 6 3 5 10 7 13 11 6 0 4 5 6 7 9 9 10 7 9 7 9 10 8 9
5 4 1 4 5 5 6 7 10 8 12 12 8 10 13 11 14 14 12 7 5 3 5 9 9 8 4 5 9 8 7 9 10 6 7 7 11 11 12 11 9 9 9
7 7 5 3 3 4 4 5 7 8 8 8 10 13 13 10 15 15 11 7 5 3 8 10 9 13 11 6 7 7 10 11 11 9 6 7 8 7 7 9 12 11 9
7 7 7 6 3 3 5 5 4 3 7 9 7 9 5 9 15 16 12 7 5 8 9 9 11 13 6 9 9 10 10 11 12 9 8 8 6 6 6 7 7 6 9
7 7 7 7 7 7 6 5 5 7 7 6 8 7 8 9 13 13 10 5 7 8 8 8 10 8 8 11 10 9 10 9 4 4 6 10 12 10 10 9 7 5 7
8 6 6 7 8 9 6 7 5 3 5 6 8 5 7 9 11 16 13 6 8 7 8 8 3 5 8 7 9 8 7 8 9 9 8 7 3 4 9 8 9 4 6
8 9 8 7 7 5 6 6 7 5 5 5 4 5 6 8 12 12 12 11 5 6 6 5 4 10 11 9 7 10 5 5 8 10 7 7 7 8 2 3 4 5 7
9 9 9 10 8 7 8 8 5 5 4 4 5 5 5 6 6 12 11 10 6 6 6 1 3 6 8 8 13 11 7 8 9 8 6 10 6 6 4 6 4 7 9
10 10 9 10 9 7 6 5 7 7 3 4 5 5 5 6 6 6 4 6 7 5 6 8 7 6 8 9 4 9 9 10 8 7 8 7 6 6 8 6 7 6 8
10 10 9 11 8 9 9 2 1 4 5 4 5 6 7 7 7 8 10 9 4 6 7 9 9 9 10 11 10 10 9 12 9 9 5 6 7 8 7 6 6 8 9
10 10 10 8 10 10 9 3 5 2 7 9 7 7 5 7 9 9 6 9 8 8 7 9 8 8 8 7 6 6 6 5 5 3 5 5 5 7 6 7 8 8 8
10 10 10 11 10 10 10 11 1 5 10 3 8 11 9 5 9 10 10 8 4 3 7 8 9 7 6 6 6 6 6 5 6 6 6 6 6 6 7 8 8 8 8
12 12 10 12 12 11 11 10 3 2 1 2 5 4 7 9 9 11 10 8 3 5 9 9 8 5 5 5 5 6 6 5 5 5 7 7 7 8 8 9 9 10 8
13 12 11 11 12 11 10 6 2 2 4 4 4 5 7 11 7 6 6 5 7 10 9 7 5 5 5 5 5 5 5 4 4 6 7 7 8 8 8 8 8 9 8
13 14 12 11 12 11 9 5 3 2 4 5 5 5 5 6 6 6 7 7 9 5 4 4 4 4 5 5 5 5 5 5 6 6 7 7 7 7 7 8 8 8 7
10 12 11 12 11 7 4 3 4 4 5 6 6 7 10 6 7 7 7 9 3 4 3 4 5 4 5 5 6 7 7 7 7 7 7 8 7 6 6 6 6 6 5
11 12 12 13 4 12 2 5 3 4 7 8 7 4 7 4 3 4 3 3 2 2 3 3 5 5 4 6 7 6 7 6 7 7 7 6 5 5 4 4 5 5 4
11 12 13 13 4 7 7 6 5 5 7 7 5 6 3 2 5 2 2 3 2 2 4 3 4 6 8 6 6 7 8 8 7 7 6 5 3 3 3 4 4 3 3
13 13 14 4 5 6 8 8 7 7 7 8 7 6 4 2 5 3 3 2 1 3 2 3 5 7 5 6 6 9 8 7 6 5 4 2 1 2 3 3 3 3 2
12 13 6 5 7 8 11 10 6 6 7 9 9 8 9 5 3 3 2 3 3 1 4 3 5 6 7 9 10 10 6 5 7 5 2 1 3 3 3 4 2 4 4
11 4 8 7 7 11 11 10 6 6 5 6 8 6 4 7 4 3 4 3 2 4 3 4 5 5 6 11 10 7 4 4 4 3 4 1 4 5 5 5 5 4 4
Wind_Direction
248 229 205 201 206 185 194 200 194 221 240 183 212 201 197 201 196 197 207 245 196 219 262 275 247 262 280 302 329 319 311 33 293 297 328 309 294 283 299 306 316 323 33
196 219 206 191 201 202 208 203 194 217 216 213 194 215 213 211 203 196 214 206 227 215 224 239 267 278 265 241 266 311 329 334 341 295 300 297 312 332 328 308 348 298 317
148 211 226 198 206 204 209 208 197 205 212 194 207 217 219 208 202 207 190 225 234 255 329 281 260 265 265 282 293 324 320 312 291 287 293 325 319 287 335 293 305 28 273
216 171 223 219 208 217 214 203 208 206 201 209 228 228 207 205 206 175 199 210 76 324 290 271 268 296 278 289 308 296 298 280 286 315 315 313 307 6 343 345 334 315 330
306 322 182 241 214 213 210 211 214 215 219 227 212 218 203 205 196 200 175 147 167 259 281 273 274 263 321 319 290 299 317 299 326 318 320 317 353 355 335 334 318 307 313
2 321 308 229 226 204 208 212 212 216 217 222 226 210 209 215 183 158 166 166 179 186 273 268 290 282 212 203 206 17 358 318 314 323 317 337 340 332 340 335 311 322 311
7 84 52 266 255 254 234 219 229 220 222 216 217 224 222 219 158 149 160 174 161 187 266 289 295 287 231 173 187 184 229 235 232 266 282 307 333 335 329 316 319 314 304
26 27 44 354 293 270 282 266 249 233 228 213 221 227 230 211 163 157 158 161 159 200 252 255 259 267 274 224 192 220 255 241 215 224 240 305 306 328 310 312 303 295 290
20 17 1 354 351 305 267 251 258 241 239 238 238 226 217 152 162 162 163 175 183 231 249 261 273 273 245 178 226 245 260 262 174 207 219 246 263 247 269 297 307 313 308
354 358 348 354 340 340 330 303 232 216 259 250 236 226 198 169 172 163 174 178 213 238 250 272 258 274 177 197 227 244 270 291 337 197 247 242 238 246 219 257 295 304 306
316 335 343 345 335 329 334 314 305 221 244 246 242 220 196 176 176 185 185 189 218 233 245 261 336 230 251 202 226 253 285 335 313 305 270 256 247 246 252 205 254 301 294
328 319 324 329 319 336 323 316 299 264 244 226 208 197 195 178 179 193 187 215 253 259 286 303 271 194 197 200 203 242 274 301 279 273 276 282 312 303 285 247 287 284 274
307 308 314 313 311 331 305 297 314 275 256 210 199 208 195 181 173 175 194 208 193 230 253 336 186 166 193 207 229 236 210 234 253 266 275 279 294 285 334 285 280 263 247
296 294 300 301 288 279 309 308 346 323 246 225 208 189 183 172 161 165 188 221 226 229 245 233 208 219 243 268 221 214 232 250 258 278 262 269 321 307 296 288 279 289 284
272 279 286 279 301 307 281 317 275 317 308 239 210 184 171 169 168 179 204 209 178 222 235 247 215 225 233 228 223 231 220 218 223 233 267 276 283 276 298 299 294 274 295
267 267 275 308 294 297 289 182 71 131 293 265 224 177 126 132 165 196 179 138 175 236 236 261 265 262 277 285 314 318 308 315 311 357 289 286 302 320 307 293 298 299 306
276 273 270 267 281 296 283 278 312 90 57 359 141 121 134 157 172 165 140 138 170 198 244 264 264 274 301 327 313 317 318 329 350 306 333 308 293 284 309 309 304 298 300
275 271 274 270 275 284 275 268 100 328 161 147 41 102 118 123 136 144 152 147 186 229 262 262 276 322 325 319 325 319 323 314 354 336 319 311 310 314 316 313 318 322 323
285 282 289 298 293 297 291 255 19 78 191 154 147 94 87 87 106 136 158 215 229 235 224 251 337 334 322 324 300 312 331 341 326 302 288 321 332 326 338 334 322 321 321
279 264 253 272 274 269 269 223 93 174 173 156 151 125 124 148 162 167 199 225 251 277 353 335 315 346 315 307 338 312 324 342 318 329 340 327 347 3 347 328 321 320 323
281 278 273 275 261 253 10 314 99 161 154 141 138 139 168 171 173 183 207 226 261 347 1 343 298 343 333 358 348 355 344 327 344 346 342 13 4 344 330 322 308 307 353
288 285 280 274 64 307 134 64 108 164 151 135 133 148 71 238 301 244 221 70 3 57 2 324 326 20 6 16 357 331 328 347 359 358 1 5 354 337 331 317 319 337 5
268 262 265 261 78 125 98 100 122 123 111 107 109 97 92 279 291 233 122 87 34 339 41 15 340 23 31 4 336 344 11 20 1 345 18 353 349 346 351 336 329 334 349
262 260 260 102 125 97 111 121 112 115 117 101 111 164 166 251 243 106 139 134 130 78 54 51 49 41 7 346 357 46 34 11 334 28 3 8 5 347 332 345 297 307 303
244 253 240 140 142 128 128 119 131 138 141 155 156 175 202 200 156 157 142 101 74 62 85 25 57 13 14 37 42 34 67 28 19 319 52 61 3 337 294 275 325 301 301
252 115 168 179 138 135 134 137 144 156 143 187 184 130 139 211 144 131 99 93 113 89 21 54 53 8 3 68 53 78 77 37 29 2 310 341 306 303 299 312 319 303 302